Other Public Products
Issued by NWS Grand Forks, ND

Home | Current Version | Previous Version | Graphics & Text | Print | Product List | Glossary On
Versions: 1 2 3 4 5 6 7 8 9 10 11 12 13 14 15 16 17 18 19 20 21 22 23 24 25 26 27 28 29 30 31 32 33 34 35 36 37 38 39 40 41 42 43 44 45 46 47 48 49 50
437
FPUS83 KFGF 221331
OPUFGF
PRAIRIE TO PINES WEATHER ROUNDUP
NATIONAL WEATHER SERVICE EASTERN NORTH DAKOTA/GRAND FORKS ND
800 AM CDT THU JUN 22 2017

 **SATELLITE DATA USED TO AUGMENT SKY COVER AT AUTOMATED STATIONS**
 *****  WEATHER ACROSS EASTERN NORTH DAKOTA  *****

CITY           SKY/WX    TMP DP  RH WIND       PRES   REMARKS
GRAND FORKS    CLOUDY    60  49  66 W8        29.71S
GRAND FORKS AF PTSUNNY   60  47  61 W7        29.72F
GRAND CITY NWS NOT AVBL
BUXTON           N/A     62  52  69 W10         N/A
DEVILS LAKE    PTSUNNY   61  48  62 W15       29.74F
FARGO          PTSUNNY   59  52  77 SW5       29.73S
WAHPETON ARPT  FAIR      59  54  82 W3        29.74F
$$

 *****  WEATHER ACROSS CENTRAL AND WESTERN NORTH DAKOTA  *****

CITY           SKY/WX    TMP DP  RH WIND       PRES   REMARKS
JAMESTOWN      CLOUDY    62  46  55 NW9       29.79R
BISMARCK       CLOUDY    61  46  57 NW7       29.84R
MINOT          FAIR      62  45  53 W16       29.75S
MINOT AFB      FAIR      60  46  59 W16G24    29.74R
GARRISON         N/A     58  47  66 W14       29.78F
WILLISTON      FAIR      56  46  69 W14       29.86R
DICKINSON      CLOUDY    54  44  69 W7        29.86R
HETTINGER      CLOUDY    57  41  55 N9        29.90R
$$

 *****  OTHER OBSERVATIONS NORTHEAST NORTH DAKOTA  *****

CITY           SKY/WX    TMP DP  RH WIND       PRES   REMARKS
WALHALLA       NOT AVBL
LANGDON        PTSUNNY   59  52  77 W12       29.70F
CAVALIER       CLOUDY    59  46  63 W8        29.68S
GRAFTON        FAIR      59  50  72 W12       29.72S
CANDO          NOT AVBL
FORT TOTTEN      N/A     60  48  64 W6        29.95S
ROLLA            N/A     61  46  59 W14G21    29.71S
RUGBY          NOT AVBL
 ***** THE ABOVE OBSERVATIONS ARE NON NWS ARE NOT QUALITY
        CONTROLLED AND MAY MIS-REPORT RAIN FOR SNOW...
$$

 *****  OTHER OBSERVATIONS SOUTHEAST NORTH DAKOTA *****

CITY           SKY/WX    TMP DP  RH WIND       PRES   REMARKS
COOPERSTOWN    PTSUNNY   61  48  63 W8        29.78S
VALLEY CITY    CLOUDY    61  50  67 NW9       29.80R
OAKES          NOT AVBL
GWINNER        MOSUNNY   63  52  67 CALM      29.76R
SHEYENNE NWR     N/A     59  53  79 CALM      29.95S
BUFFALO          N/A     62  46  53 SW5         N/A
WYNDMERE       NOT AVBL
 ***** THE ABOVE OBSERVATIONS ARE NON NWS ARE NOT QUALITY
       CONTROLLED AND MAY MIS-REPORT RAIN FOR SNOW...
$$

  *****  WEATHER ACROSS NORTHERN MINNESOTA  *****

CITY           SKY/WX    TMP DP  RH WIND       PRES   REMARKS
FLAG ISLAND    FAIR      57  50  77 SW9       29.63R
WARROAD        FAIR      57  48  72 SW7       29.67R
ROSEAU         FAIR      57  50  77 SW6       29.67S
HALLOCK        PTSUNNY   57  48  72 SW5       29.68R
THF RVR FALLS  FAIR      57  50  77 SW6       29.72R
HALSTAD          N/A     62  52  70 NW7         N/A
FOSSTON        FAIR      57  54  88 S3        29.74R
BAUDETTE       FAIR      59  49  69 SW6       29.66R
WASKISH        PTSUNNY   64  50  59 SW9       29.70S
CROOKSTON      CLOUDY    57  52  82 SW5       29.73R
$$
  *****  WEATHER ACROSS CENTRAL AND WEST MINNESOTA  *****

CITY           SKY/WX    TMP DP  RH WIND       PRES   REMARKS
BEMIDJI        FAIR      60  53  77 W6        29.72F
PARK RAPIDS    PTSUNNY   61  53  75 N5        29.72F
WADENA         FAIR      59  57  94 CALM      29.73R
DETROIT LAKES  FAIR      61  52  72 CALM      29.75S
MOORHEAD       FAIR      61  54  77 CALM      29.73F
FERGUS FALLS   FAIR      63  59  88 CALM      29.72S
ELBOW LAKE     FAIR      63  59  86 N3        29.73S
MORRIS MN      FAIR      63  59  88 NE3       29.70S
STAPLES        FAIR      61  54  77 S3        29.74R
WHEATON        FAIR      61  55  82 NW3       29.74R
$$
  *****  WEATHER ELSEWHERE ACROSS MINNESOTA  *****

CITY           SKY/WX    TMP DP  RH WIND       PRES   REMARKS
DULUTH         FAIR      61  54  77 NW6       29.70S
INTRNTL FALLS  FAIR      61  53  75 W7        29.67R
ELY            FAIR      63  55  77 W7        29.69R
CLOQUET        FAIR      61  54  77 CALM      29.70F
BRAINERD       FAIR      63  55  75 CALM      29.71F
HIBBING        FAIR      60  57  89 W3        29.70R
ALEXANDRIA     FAIR      63  57  81 CALM      29.74F
SAINT CLOUD    LGT RAIN  63  59  87 E5        29.70S
MINNEAPOLIS    CLOUDY    70  64  81 E6        29.72R
$$

  *****  WEATHER ACROSS SOUTH DAKOTA  *****

CITY           SKY/WX    TMP DP  RH WIND       PRES   REMARKS
SIOUX FALLS    CLOUDY    72  62  71 E9        29.69F
BROOKINGS      FAIR      63  57  81 E10       29.66F
WATERTOWN      LGT RAIN  57  55  93 N12       29.72R
HURON          TSTM      59  59 100 N14G24    29.71R FOG
SISSETON         N/A     61  56  83 NW6       29.71F
ABERDEEN       FAIR      60  57  89 N6        29.75R
MITCHELL       CLOUDY    68  59  73 E8        29.67F
PIERRE         CLOUDY    55  52  89 NE9       29.75R
MOBRIDGE       FAIR      62  52  69 N9        29.80R HAZE
RAPID CITY     FAIR      63  51  65 NW5       29.85R
$$

  *****  SOME WEATHER IN NEARBY STATES *****

CITY           SKY/WX    TMP DP  RH WIND       PRES   REMARKS
GLASGOW MT     FAIR      51  42  71 W5        29.93R
GREAT FALLS MT CLOUDY    49  39  68 SW5       30.05S
CHEYENNE WY    FAIR      69  39  33 W12       29.97S
SCOTTSBLUFF NE FAIR      64  52  64 NW15      29.84R
OMAHA NE       PTSUNNY   76  58  53 S13       29.67S
DES MOINES IA  PTSUNNY   76  62  62 S13       29.71F
DAVENPORT IA   FAIR      74  66  76 S6        29.81F
CHICAGO IL     PTSUNNY   78  66  66 SW10      29.87R
EAU CLAIRE WI  CLOUDY    68  64  87 S5        29.71S
LA CROSSE WI   CLOUDY    74  68  81 S7        29.69F
$$

  *****  SOME NATIONAL WEATHER *****

CITY           SKY/WX    TMP DP  RH WIND       PRES   REMARKS
LA GUARDIA NY  PTSUNNY   74  55  51 NE6       30.02S
RALEIGH NC     PTSUNNY   75  72  90 SW9       30.10R
ATLANTA GA     LGT RAIN  73  72  96 E8        30.12R VSB 1
NEW ORLEANS LA PTSUNNY   82  76  81 S20G30    29.79R
OKLAHOMA CITY  FAIR      71  66  84 S8        29.79R
ALBUQUERQUE NM FAIR      77  45  32 W7        30.02R
SALT LAKE CITY FAIR      70  40  33 N5        30.00R
LOS ANGELES CA CLOUDY    64  62  93 CALM      29.76R FOG
BOISE ID       FAIR      57  34  41 NW5       30.10R
SEATTLE WA     FAIR      53  46  77 N6        30.30R
$$

*** WEATHER ACROSS MANITOBA...SASKATCHEWAN AND ONTARIO ***
                ***ONTARIO***

CITY           SKY/WX    TMP DP  RH WIND       PRES   REMARKS
GERALDTON      CLOUDY    55  52  88 SE6       29.61F
THUNDER BAY    PTSUNNY   55  50  82 VRB2      29.63S
SIOUX LOOKOUT  PTSUNNY   59  55  88 W6        29.59S
TORONTO        PTSUNNY   68  54  60 SE7       29.96F
BIG TROUT LK   LGT RAIN  55  54  94 S7        29.56R
PICKLE LAKE    LGT RAIN  54  54 100 S5        29.57R
DRYDEN         MOSUNNY   59  55  88 W10       29.60S
KENORA         PTSUNNY   57  54  88 SW7       29.61R
$$
                *** MANITOBA***

CITY           SKY/WX    TMP DP  RH WIND       PRES   REMARKS
BRANDON        MOSUNNY   59  43  55 W21G26    29.63F
DAUPHIN        MOSUNNY   57  43  58 W23G31    29.50F
ISLAND LAKE    MOSUNNY   57  50  77 S5        29.46S
PILOT MOUND      N/A     57  48  72 SW8         N/A
THE PAS        PTSUNNY   52  48  87 N7        29.39R
THOMPSON       LGT RAIN  55  54  94 NE7       29.42R FOG
WINNIPEG       PTSUNNY   59  46  63 W14       29.62R
LYNN LAKE      SUNNY     63  48  59 NE7       29.48S
CHURCHILL      PTSUNNY   45  41  87 N13       29.53R
GILLAM         PTSUNNY   63  54  72 SE5       29.47S
$$
                ***SASKATCHEWAN***

CITY           SKY/WX    TMP DP  RH WIND       PRES   REMARKS
ESTEVAN        MOSUNNY   55  43  62 W15G21    29.77S
KINDERSLEY     LGT RAIN  46  43  87 W23G33    29.80S
LLOYDMINSTER   LGT RAIN  50  50 100 NW18G29   29.77R
PRINCE ALBERT  CLOUDY    50  50 100 NW13      29.54R
REGINA         MOSUNNY   54  39  58 W24G30    29.73S
YORKTON        PTSUNNY   55  43  62 W20G29    29.56S



USA.gov is the U.S. government's official web portal to all federal, state and local government web resources and services.